Temp
3 3 3 3 3 3 2 2 2 2 2 3 3 2 2 2 1 1 1 1 1 1 1 1 1 1 1 1 1 1 0 1 1 0 0 0 -0 -0 -0 0 1 1 1
3 3 3 2 2 2 2 2 2 2 2 2 2 2 1 1 1 1 1 1 1 1 0 0 0 0 0 0 0 0 0 0 1 1 -0 -1 -1 -1 -0 0 0 0 0
2 2 2 2 2 1 1 1 1 1 1 1 1 1 0 -0 -0 0 -0 -0 -0 -0 -0 -0 -0 -0 -0 -0 -0 -0 -1 -1 -0 0 0 -0 -1 -1 -1 -1 -1 -0 -0
2 2 2 1 1 1 1 1 1 1 1 1 0 -0 -1 -1 -1 -1 -1 -1 -1 -1 -1 -1 -1 -1 -1 -1 -1 -1 -1 -1 -1 -1 -1 -1 -1 -1 -2 -1 -1 -2 -1
1 1 1 1 1 0 0 0 0 0 -0 -1 -1 -1 -2 -2 -2 -2 -2 -2 -2 -2 -2 -2 -2 -2 -2 -2 -2 -2 -2 -2 -2 -2 -2 -2 -2 -1 -2 -2 -2 -1 -1
1 1 0 0 -0 -0 -0 -1 -1 -1 -1 -2 -2 -2 -2 -2 -2 -2 -2 -3 -2 -2 -2 -2 -2 -2 -2 -2 -2 -2 -3 -3 -3 -3 -3 -3 -3 -3 -3 -3 -3 -3 -2
1 0 -0 -1 -1 -1 -1 -2 -2 -2 -3 -3 -3 -3 -3 -3 -3 -3 -3 -3 -3 -3 -3 -3 -3 -3 -3 -3 -4 -4 -4 -4 -4 -4 -3 -4 -3 -3 -3 -3 -3 -3 -3
-0 -0 -1 -1 -2 -2 -2 -3 -3 -3 -3 -4 -4 -4 -4 -4 -4 -4 -4 -4 -4 -4 -4 -4 -4 -5 -5 -5 -5 -5 -5 -5 -5 -5 -5 -5 -4 -4 -4 -4 -4 -4 -4
-1 -1 -2 -2 -2 -3 -3 -3 -4 -4 -4 -4 -4 -4 -4 -5 -5 -5 -5 -5 -5 -5 -5 -5 -5 -5 -5 -5 -5 -5 -6 -6 -6 -6 -6 -6 -6 -6 -5 -5 -5 -5 -5
-1 -2 -2 -3 -3 -4 -4 -4 -4 -5 -5 -5 -5 -5 -6 -6 -6 -6 -6 -6 -6 -6 -6 -6 -6 -6 -6 -6 -6 -6 -6 -6 -6 -6 -7 -7 -7 -7 -8 -7 -7 -6 -6
-3 -3 -3 -4 -4 -5 -5 -5 -5 -5 -6 -6 -6 -6 -7 -7 -7 -7 -7 -7 -7 -7 -7 -7 -7 -7 -7 -8 -8 -8 -8 -8 -8 -8 -8 -7 -7 -7 -8 -8 -8 -8 -7
-3 -3 -4 -4 -5 -5 -5 -6 -6 -6 -6 -7 -7 -7 -7 -7 -8 -8 -8 -8 -8 -8 -8 -8 -8 -8 -8 -9 -9 -9 -9 -9 -9 -9 -9 -9 -9 -8 -8 -8 -9 -9 -9
-4 -4 -5 -5 -5 -6 -6 -6 -6 -7 -7 -7 -7 -8 -8 -8 -9 -8 -8 -9 -9 -9 -9 -9 -9 -10 -10 -10 -10 -10 -10 -10 -10 -10 -10 -10 -11 -11 -11 -10 -9 -9 -10
-4 -5 -5 -5 -6 -6 -6 -7 -7 -8 -8 -7 -8 -9 -10 -10 -9 -9 -9 -9 -10 -10 -10 -10 -10 -10 -10 -10 -11 -11 -11 -11 -12 -12 -12 -12 -12 -12 -12 -12 -12 -12 -10
-5 -5 -6 -6 -7 -7 -8 -8 -8 -7 -7 -8 -9 -11 -12 -11 -10 -10 -10 -10 -10 -10 -10 -11 -11 -11 -11 -11 -11 -11 -12 -12 -13 -13 -13 -14 -14 -14 -14 -14 -14 -14 -13
-6 -6 -6 -7 -8 -8 -9 -8 -7 -8 -9 -9 -11 -12 -11 -10 -10 -10 -10 -10 -11 -11 -11 -11 -11 -11 -11 -11 -12 -12 -13 -14 -14 -14 -15 -15 -15 -15 -15 -15 -15 -15 -14
-6 -7 -7 -8 -8 -8 -8 -8 -9 -9 -10 -12 -13 -12 -11 -10 -10 -11 -11 -11 -11 -11 -11 -11 -11 -12 -12 -13 -13 -14 -14 -15 -15 -15 -15 -16 -15 -15 -15 -15 -15 -15 -15
-7 -8 -8 -8 -8 -8 -9 -9 -10 -10 -13 -13 -12 -11 -11 -11 -11 -11 -11 -11 -11 -12 -12 -12 -12 -13 -13 -14 -15 -15 -15 -15 -15 -16 -16 -16 -16 -16 -15 -15 -16 -16 -16
-8 -8 -8 -8 -9 -10 -10 -10 -11 -13 -14 -13 -12 -11 -11 -11 -11 -11 -11 -12 -12 -12 -12 -13 -13 -14 -15 -15 -15 -15 -16 -16 -16 -16 -16 -16 -16 -16 -16 -16 -16 -16 -16
-8 -8 -9 -10 -10 -10 -10 -12 -14 -14 -13 -12 -12 -12 -12 -12 -11 -12 -12 -12 -12 -13 -13 -14 -14 -15 -15 -15 -16 -16 -16 -16 -16 -16 -16 -16 -17 -17 -17 -17 -16 -16 -16
-10 -10 -10 -10 -11 -11 -13 -14 -14 -13 -13 -12 -12 -12 -12 -12 -12 -12 -12 -12 -13 -14 -14 -15 -15 -15 -16 -16 -16 -16 -16 -16 -16 -16 -17 -17 -17 -17 -17 -17 -17 -17 -17
-11 -11 -11 -11 -12 -14 -15 -15 -14 -13 -12 -12 -12 -12 -12 -12 -12 -12 -13 -13 -14 -15 -15 -15 -16 -16 -16 -17 -17 -17 -17 -17 -17 -17 -17 -17 -17 -17 -17 -17 -17 -17 -17
-12 -12 -12 -14 -15 -15 -15 -14 -13 -13 -13 -12 -12 -12 -12 -13 -13 -13 -14 -15 -15 -15 -16 -16 -16 -17 -17 -17 -17 -17 -17 -17 -17 -17 -17 -17 -17 -17 -17 -17 -17 -17 -17
-13 -14 -15 -15 -15 -15 -14 -13 -13 -13 -13 -13 -13 -13 -13 -13 -14 -15 -15 -15 -15 -16 -16 -17 -17 -17 -17 -17 -17 -17 -17 -17 -17 -17 -17 -17 -17 -18 -18 -18 -18 -18 -18
-14 -14 -14 -14 -14 -13 -13 -13 -13 -13 -13 -13 -13 -14 -14 -14 -15 -15 -15 -15 -16 -16 -17 -17 -17 -17 -17 -17 -18 -18 -18 -18 -18 -18 -18 -18 -18 -18 -18 -18 -18 -18 -18
-14 -14 -14 -13 -13 -13 -13 -13 -13 -13 -14 -14 -14 -15 -15 -15 -15 -15 -16 -16 -16 -17 -17 -17 -18 -18 -18 -18 -18 -19 -19 -19 -18 -18 -18 -18 -18 -18 -18 -18 -18 -18 -18
Height
3108 3109 3109 3110 3111 3112 3112 3112 3112 3112 3112 3111 3109 3108 3106 3104 3103 3101 3100 3098 3096 3095 3093 3091 3090 3087 3085 3083 3081 3079 3077 3075 3073 3073 3071 3069 3066 3063 3062 3060 3059 3058 3056
3100 3101 3102 3103 3104 3105 3105 3106 3107 3106 3106 3105 3104 3102 3100 3099 3097 3096 3095 3092 3091 3089 3088 3086 3084 3082 3080 3078 3076 3074 3072 3069 3068 3067 3065 3063 3060 3057 3054 3053 3052 3051 3050
3093 3094 3095 3096 3097 3098 3100 3100 3101 3100 3099 3098 3097 3095 3094 3093 3091 3090 3089 3088 3086 3084 3083 3081 3079 3077 3075 3073 3071 3068 3066 3064 3062 3060 3059 3056 3054 3051 3050 3047 3045 3044 3042
3085 3086 3087 3089 3091 3093 3093 3094 3093 3093 3092 3090 3089 3088 3087 3086 3085 3084 3083 3081 3080 3079 3077 3075 3073 3071 3069 3066 3064 3062 3060 3058 3055 3053 3051 3050 3047 3044 3041 3041 3040 3037 3035
3077 3079 3081 3083 3084 3085 3086 3086 3085 3085 3084 3083 3082 3081 3081 3080 3079 3078 3077 3075 3074 3073 3071 3069 3067 3065 3063 3061 3059 3056 3054 3051 3049 3047 3045 3043 3040 3037 3034 3032 3031 3030 3028
3069 3071 3073 3074 3076 3077 3077 3077 3077 3077 3076 3076 3075 3075 3074 3073 3073 3072 3071 3070 3068 3066 3064 3062 3060 3058 3056 3054 3052 3050 3048 3045 3043 3041 3039 3036 3034 3030 3028 3025 3022 3021 3021
3061 3063 3064 3066 3068 3069 3069 3069 3070 3069 3068 3068 3068 3068 3067 3067 3066 3065 3064 3063 3061 3059 3057 3055 3053 3052 3050 3048 3045 3043 3041 3038 3036 3034 3032 3028 3027 3023 3021 3018 3015 3012 3011
3053 3054 3056 3059 3060 3061 3061 3062 3061 3061 3061 3061 3061 3061 3060 3059 3058 3057 3057 3055 3054 3053 3051 3049 3047 3045 3043 3041 3039 3037 3034 3030 3028 3026 3023 3021 3018 3015 3011 3009 3008 3003 3003
3045 3047 3049 3051 3052 3053 3053 3054 3054 3054 3054 3054 3053 3053 3052 3051 3051 3050 3049 3048 3046 3044 3044 3041 3040 3037 3035 3033 3031 3029 3027 3024 3021 3017 3013 3011 3008 3006 3003 3000 2999 2995 2993
3038 3040 3041 3042 3043 3044 3044 3045 3045 3045 3045 3046 3045 3045 3044 3044 3043 3042 3041 3040 3039 3037 3036 3034 3032 3030 3028 3025 3023 3021 3019 3016 3013 3010 3006 3002 2999 2996 2992 2989 2988 2985 2982
3030 3031 3033 3034 3035 3036 3036 3037 3037 3038 3038 3037 3036 3036 3036 3036 3035 3035 3034 3033 3032 3031 3029 3027 3025 3023 3020 3017 3013 3010 3007 3005 3003 2999 2997 2994 2991 2987 2984 2979 2976 2974 2972
3022 3023 3024 3025 3026 3027 3028 3028 3029 3029 3029 3029 3028 3028 3028 3027 3027 3027 3027 3026 3024 3024 3023 3021 3019 3016 3013 3009 3005 3001 2997 2993 2989 2986 2984 2982 2979 2977 2973 2970 2966 2963 2959
3015 3016 3016 3016 3017 3018 3019 3020 3020 3020 3020 3020 3020 3018 3018 3018 3019 3019 3018 3018 3017 3016 3015 3013 3011 3008 3004 3001 2997 2992 2988 2983 2978 2974 2970 2968 2966 2963 2960 2957 2954 2952 2948
3006 3007 3008 3008 3009 3009 3009 3010 3010 3010 3010 3009 3009 3009 3009 3011 3012 3012 3011 3010 3009 3006 3004 3004 3001 2998 2995 2992 2987 2983 2977 2972 2966 2961 2956 2953 2950 2948 2946 2944 2940 2938 2936
2995 2997 2998 2999 3000 3000 3000 3000 3000 3000 3000 3000 3000 3000 3003 3005 3004 3004 3004 3003 3001 2999 2996 2994 2991 2988 2983 2979 2975 2971 2966 2961 2956 2950 2945 2940 2938 2935 2932 2930 2927 2925 2923
2985 2986 2987 2989 2989 2990 2989 2989 2990 2991 2990 2990 2990 2993 2996 2998 2997 2996 2995 2994 2992 2989 2986 2985 2981 2976 2972 2966 2961 2956 2952 2949 2944 2939 2934 2930 2926 2923 2920 2917 2915 2913 2911
2976 2977 2978 2977 2978 2977 2978 2980 2981 2980 2980 2981 2985 2987 2988 2989 2989 2989 2987 2985 2982 2979 2975 2971 2968 2964 2959 2954 2947 2942 2938 2935 2931 2927 2923 2919 2916 2913 2910 2906 2903 2901 2901
2966 2966 2966 2967 2967 2968 2969 2970 2970 2970 2972 2975 2978 2979 2980 2980 2979 2979 2977 2973 2972 2968 2964 2960 2955 2950 2947 2942 2936 2931 2927 2923 2919 2915 2911 2909 2906 2902 2899 2896 2892 2890 2889
2954 2955 2956 2958 2959 2959 2959 2959 2959 2962 2965 2969 2970 2971 2971 2970 2969 2968 2964 2961 2958 2955 2950 2946 2942 2938 2934 2930 2926 2921 2915 2912 2908 2904 2900 2896 2894 2890 2887 2885 2882 2880 2878
2945 2945 2947 2947 2948 2948 2948 2949 2952 2956 2959 2962 2963 2963 2962 2961 2959 2956 2954 2949 2945 2942 2937 2932 2929 2926 2922 2918 2914 2909 2905 2902 2898 2894 2890 2886 2882 2879 2875 2873 2872 2869 2868
2936 2936 2936 2936 2937 2938 2939 2942 2947 2949 2952 2952 2953 2952 2951 2950 2949 2946 2943 2938 2934 2930 2925 2922 2919 2915 2911 2906 2902 2898 2894 2891 2888 2884 2880 2876 2872 2868 2865 2863 2861 2859 2858
2926 2927 2927 2929 2929 2930 2934 2937 2940 2941 2943 2942 2942 2942 2940 2938 2936 2933 2929 2926 2921 2917 2913 2909 2906 2902 2898 2895 2891 2887 2884 2881 2878 2873 2869 2865 2862 2859 2856 2853 2851 2849 2847
2919 2919 2919 2920 2924 2927 2929 2931 2932 2932 2933 2932 2931 2931 2929 2926 2923 2919 2916 2913 2910 2906 2901 2897 2894 2891 2887 2884 2881 2877 2873 2870 2867 2863 2858 2855 2851 2849 2846 2843 2840 2838 2836
2912 2913 2914 2916 2918 2921 2922 2923 2922 2922 2922 2921 2920 2919 2916 2913 2910 2907 2905 2902 2898 2894 2890 2887 2884 2881 2878 2874 2870 2866 2862 2858 2855 2852 2848 2844 2841 2838 2835 2832 2829 2827 2825
2909 2910 2910 2911 2911 2912 2913 2912 2912 2912 2910 2909 2908 2906 2904 2901 2899 2896 2894 2890 2887 2884 2881 2878 2875 2871 2867 2863 2859 2854 2850 2846 2842 2840 2837 2834 2832 2829 2826 2823 2821 2817 2815
2901 2902 2902 2902 2901 2902 2902 2901 2900 2899 2898 2897 2895 2893 2890 2889 2888 2886 2884 2881 2877 2875 2872 2869 2866 2861 2856 2852 2847 2842 2838 2835 2832 2831 2829 2826 2823 2821 2818 2815 2812 2810 2808
Wind_Speed
30 30 30 29 28 27 27 25 25 24 24 25 26 26 25 23 22 20 19 18 19 18 17 18 18 19 19 20 21 23 24 25 25 21 23 24 26 27 27 27 27 27 25
32 32 31 30 29 29 27 25 25 25 25 26 26 26 24 22 20 19 18 17 17 17 16 17 17 18 19 20 21 22 23 25 26 26 25 25 26 27 29 29 29 29 29
33 33 32 32 31 28 26 25 26 26 26 27 26 24 22 20 19 19 18 18 17 18 18 19 20 21 23 24 24 25 26 27 27 28 27 26 26 28 28 30 31 31 31
34 34 34 32 28 27 27 27 26 26 27 26 25 23 22 20 19 19 18 18 18 19 21 22 23 23 23 24 24 25 26 27 27 28 28 29 30 29 29 29 28 30 31
34 32 30 29 29 28 27 27 28 28 27 26 25 23 22 21 20 20 19 19 20 21 22 22 23 23 23 24 25 26 26 27 27 27 28 28 29 31 33 31 30 29 28
31 31 31 31 30 29 29 29 28 28 27 26 24 23 22 21 21 21 20 20 21 22 23 23 24 25 26 26 27 27 28 28 29 28 28 28 28 30 31 33 33 32 30
32 32 32 32 31 30 29 29 28 27 27 25 25 24 23 22 21 21 21 22 22 22 23 24 25 26 26 26 27 28 28 30 30 30 29 31 29 32 33 32 32 34 32
34 33 33 32 30 30 30 29 28 28 27 26 25 24 23 23 22 22 22 22 23 23 24 24 25 26 26 26 26 27 28 30 31 31 31 32 34 33 36 37 36 36 33
33 32 31 31 32 31 30 29 29 28 27 26 25 24 24 23 23 22 23 23 24 24 25 25 24 25 27 27 28 28 28 31 33 35 36 36 36 37 39 39 37 40 38
33 31 32 33 32 31 31 30 29 28 28 27 26 25 24 24 23 23 23 23 24 24 25 25 25 25 27 28 29 31 31 32 34 36 38 40 40 39 40 41 41 40 42
31 32 33 32 31 31 30 30 29 29 28 27 26 25 25 24 24 24 23 22 22 22 22 23 25 26 27 30 32 34 36 37 37 39 39 40 41 43 44 45 45 44 43
33 33 31 30 31 31 30 30 30 29 28 27 27 28 30 27 24 23 22 20 19 20 22 23 25 28 30 32 34 36 39 41 42 42 42 42 42 43 44 44 45 46 47
31 30 30 31 31 31 31 31 31 30 30 30 33 34 29 22 19 20 20 19 20 21 23 24 27 30 32 35 37 39 42 44 46 47 47 46 44 43 42 43 45 46 47
30 31 31 32 32 33 33 33 33 32 35 38 34 27 19 17 20 19 18 20 22 25 28 29 31 34 38 40 42 43 45 47 48 49 49 49 48 46 45 43 44 43 45
32 32 33 34 35 35 36 37 39 41 39 33 27 18 17 18 21 20 20 22 26 28 32 34 37 40 42 44 47 49 49 49 48 47 48 48 47 45 44 41 41 41 42
35 35 35 36 38 40 42 44 43 38 34 30 20 16 19 20 21 21 23 26 29 32 35 39 42 45 47 49 50 50 48 47 46 45 44 43 43 43 42 41 40 39 39
36 37 38 41 44 48 47 44 38 34 29 18 16 20 22 23 23 24 26 29 32 35 39 42 46 48 49 50 49 47 46 46 46 44 42 40 40 39 39 40 41 39 37
39 42 45 47 48 45 42 37 33 26 19 17 20 23 24 25 26 28 30 33 36 40 43 46 48 48 47 46 45 45 46 45 43 41 40 39 38 38 39 39 39 39 38
44 45 48 45 40 40 36 33 26 19 17 20 23 25 27 28 29 31 34 38 42 45 47 48 46 45 45 45 45 45 44 41 41 40 39 39 40 40 39 38 38 38 37
45 43 39 39 36 33 32 24 17 18 20 23 27 27 29 30 32 34 38 42 46 48 47 46 45 45 45 45 44 42 41 40 38 39 39 39 38 37 37 35 35 36 35
36 36 34 31 31 31 23 17 18 22 24 27 28 29 31 33 36 39 42 45 46 44 43 43 44 44 44 42 39 39 38 37 38 38 37 37 34 33 33 33 34 35 34
27 26 26 29 27 20 17 20 23 24 26 29 31 32 34 37 40 44 46 44 41 42 43 43 42 41 39 37 36 36 36 36 37 36 36 35 33 32 33 34 35 35 35
27 29 25 18 15 18 21 23 26 29 31 31 33 35 38 41 43 43 40 38 39 41 41 40 38 36 35 35 36 37 39 39 37 37 36 34 33 34 35 35 35 35 34
13 11 12 14 17 22 26 29 31 32 32 33 36 38 40 42 40 36 35 37 39 37 36 35 34 34 35 37 38 38 38 38 37 36 35 34 34 33 32 32 32 32 32
17 19 22 24 26 29 31 32 33 33 35 37 39 40 38 36 33 34 34 36 37 35 33 32 33 34 36 36 37 38 39 40 37 33 31 31 31 30 29 28 27 27 27
23 25 27 28 29 31 32 34 35 37 39 38 37 35 33 33 33 33 34 35 33 31 31 31 33 35 36 37 36 35 33 29 25 25 26 27 28 28 28 28 26 24 23
Wind_Direction
253 254 257 255 254 255 259 264 270 275 282 288 291 291 290 290 290 291 292 294 297 300 303 303 306 308 309 309 307 305 302 300 298 296 294 292 292 290 287 286 285 283 282
255 254 256 254 253 255 260 266 272 277 284 289 290 289 287 285 283 285 288 291 294 297 299 299 303 305 306 307 307 305 304 304 304 303 300 294 289 286 287 287 285 286 286
254 253 252 251 252 256 263 268 272 278 284 288 288 284 280 277 278 282 285 287 289 292 293 296 299 301 301 300 299 298 299 299 299 299 299 299 297 292 289 288 289 287 286
250 250 249 250 254 259 263 267 272 278 283 285 281 275 271 272 275 277 279 282 284 286 289 294 297 298 298 298 297 297 297 297 298 299 298 297 297 295 294 290 286 288 288
249 249 250 252 254 258 264 269 272 276 279 278 272 268 267 270 273 276 278 281 285 289 294 297 298 298 299 298 298 297 297 296 297 298 298 298 298 297 297 297 294 290 286
251 249 248 249 253 258 263 266 271 275 276 272 267 266 267 269 272 275 278 282 288 293 295 295 296 296 295 295 294 293 294 295 296 297 298 298 298 296 296 299 299 297 293
245 245 246 249 254 259 263 266 269 271 271 267 265 265 268 271 274 275 278 283 287 291 292 294 294 293 293 293 293 293 294 294 295 297 297 297 297 295 294 292 293 294 295
243 245 246 250 257 262 263 266 268 268 265 263 263 266 270 273 274 276 281 287 290 292 294 293 292 293 293 294 295 296 296 297 297 297 296 294 294 294 293 293 292 290 291
248 248 251 256 259 261 263 265 265 263 260 260 263 267 270 271 276 282 287 289 291 293 293 292 292 293 293 293 292 292 293 293 295 297 298 298 296 295 292 291 291 290 289
250 251 254 258 260 260 260 260 259 257 258 261 264 267 270 275 280 283 286 291 291 290 290 292 293 293 293 294 296 295 293 291 290 290 292 294 295 293 292 291 290 288 289
248 253 257 259 259 256 256 256 254 255 258 261 263 266 270 275 282 285 287 287 287 288 292 294 296 298 299 301 302 302 302 301 298 295 293 290 288 288 290 291 291 289 287
251 254 256 256 255 254 253 252 253 255 258 259 261 265 271 273 277 284 286 285 287 289 293 297 300 302 304 305 306 306 305 305 304 301 299 296 293 290 287 286 287 288 287
255 257 258 257 254 251 251 252 253 254 255 259 263 268 268 270 277 277 279 283 289 295 299 304 306 307 308 309 309 309 308 307 305 303 301 299 297 294 290 287 283 282 283
255 259 261 257 252 250 250 251 251 251 256 264 267 262 265 271 269 272 278 288 296 301 303 306 308 309 310 310 309 309 308 307 305 303 301 300 299 297 294 292 289 285 280
251 254 256 253 249 249 250 248 251 259 264 264 256 252 253 259 263 270 282 293 298 302 304 307 308 308 308 308 308 308 306 304 301 300 299 298 298 296 295 293 290 288 286
252 252 250 251 251 250 249 255 263 263 260 252 243 246 251 253 259 271 284 293 298 301 304 307 308 308 308 308 308 307 305 304 302 300 297 296 295 295 293 290 289 288 285
252 251 248 249 251 252 259 264 260 256 250 242 245 250 253 255 262 274 285 292 297 300 304 306 306 306 307 307 306 305 304 303 301 300 298 295 292 292 292 292 289 288 286
250 249 249 255 261 264 259 255 251 243 238 242 250 255 258 262 271 282 290 293 299 301 303 304 305 305 305 304 304 304 303 302 300 299 298 295 291 290 289 290 290 287 287
254 256 260 265 261 256 251 247 239 233 240 247 254 259 262 268 278 287 293 297 301 303 304 303 303 302 302 302 301 301 300 300 299 298 297 295 292 287 285 284 285 285 286
264 264 259 254 253 253 249 236 231 239 246 251 256 262 267 276 284 290 295 299 300 301 301 301 301 300 300 299 298 297 296 297 297 297 298 298 294 290 285 282 282 284 283
258 254 253 253 254 246 230 228 238 246 253 259 265 270 275 281 287 291 295 297 298 298 297 297 297 296 295 294 294 295 295 295 296 297 297 298 295 292 288 286 284 284 283
256 254 253 256 241 225 229 239 248 256 262 266 271 275 280 286 290 293 296 298 298 298 298 297 296 295 294 294 295 294 293 294 296 297 298 296 294 291 289 288 287 286 285
253 251 241 233 236 240 245 252 257 262 268 272 275 279 284 288 292 295 295 296 298 299 298 296 296 295 294 294 294 293 293 294 296 295 296 296 294 293 291 290 289 287 285
245 241 239 241 249 255 257 260 264 268 272 274 278 282 286 290 291 292 295 299 303 301 298 296 295 295 295 294 293 293 294 294 294 294 293 294 294 295 294 294 292 289 284
265 262 260 259 259 261 263 266 270 272 275 278 281 284 285 286 287 291 293 302 303 299 297 296 297 298 299 298 296 295 294 294 292 290 290 293 294 296 296 296 296 293 287
268 268 267 267 267 267 268 270 272 274 277 279 280 282 283 285 288 290 292 298 298 295 294 295 300 304 302 301 299 298 296 293 289 288 290 291 293 296 299 299 298 295 290